Hourly Weather La Rioja

Today, 10 August, Monday

Time Temperature Precipitation Wind Pressure Humidity
00:00 +18°C° 0 mm 1 mps 709 mmHg 46%
01:00 +18°C° 0 mm 1 mps 709 mmHg 49%
02:00 +16°C° 0 mm 1 mps 709 mmHg 45%
03:00 +16°C° 0 mm 1 mps 709 mmHg 48%
04:00 +15°C° 0 mm 1 mps 709 mmHg 51%
05:00 +15°C° 0 mm 2 mps 710 mmHg 54%
06:00 +16°C° 0 mm 2 mps 711 mmHg 52%
07:00 +16°C° 0 mm 1 mps 711 mmHg 50%
08:00 +18°C° 0 mm 1 mps 712 mmHg 49%
09:00 +19°C° 0 mm 2 mps 712 mmHg 46%
10:00 +21°C° 0 mm 2 mps 713 mmHg 43%
11:00 +24°C° 0 mm 2 mps 713 mmHg 40%
12:00 +24°C° 0 mm 2 mps 712 mmHg 38%
13:00 +25°C° 0 mm 3 mps 711 mmHg 36%
14:00 +26°C° 0 mm 3 mps 711 mmHg 35%
15:00 +26°C° 0 mm 3 mps 711 mmHg 35%
16:00 +25°C° 0 mm 2 mps 711 mmHg 35%
17:00 +25°C° 0 mm 2 mps 711 mmHg 35%
18:00 +23°C° 0 mm 2 mps 713 mmHg 36%
19:00 +20°C° 0 mm 2 mps 714 mmHg 37%
20:00 +19°C° 0 mm 2 mps 715 mmHg 39%
21:00 +18°C° 0 mm 2 mps 716 mmHg 35%
22:00 +17°C° 0 mm 2 mps 717 mmHg 30%
23:00 +16°C° 0 mm 2 mps 718 mmHg 26%

Tomorrow, 11 August, Tuesday

Time Temperature Precipitation Wind Pressure Humidity
00:00 +14°C° 0 mm 3 mps 718 mmHg 27%
01:00 +12°C° 0 mm 3 mps 718 mmHg 27%
02:00 +11°C° 0 mm 3 mps 719 mmHg 27%
03:00 +10°C° 0 mm 2 mps 719 mmHg 30%
04:00 +9°C° 0 mm 2 mps 718 mmHg 33%
05:00 +8°C° 0 mm 2 mps 718 mmHg 37%
06:00 +8°C° 0 mm 2 mps 718 mmHg 36%
07:00 +8°C° 0 mm 2 mps 718 mmHg 35%
08:00 +8°C° 0 mm 2 mps 719 mmHg 35%
09:00 +9°C° 0 mm 2 mps 718 mmHg 32%
10:00 +10°C° 0 mm 2 mps 718 mmHg 29%
11:00 +13°C° 0 mm 2 mps 718 mmHg 26%
12:00 +14°C° 0 mm 2 mps 717 mmHg 25%
13:00 +15°C° 0 mm 2 mps 716 mmHg 24%
14:00 +16°C° 0 mm 2 mps 715 mmHg 24%
15:00 +16°C° 0 mm 2 mps 714 mmHg 25%
16:00 +16°C° 0 mm 3 mps 714 mmHg 26%
17:00 +16°C° 0 mm 3 mps 713 mmHg 27%
18:00 +14°C° 0 mm 2 mps 713 mmHg 29%
19:00 +13°C° 0 mm 2 mps 714 mmHg 32%
20:00 +10°C° 0 mm 2 mps 714 mmHg 35%
21:00 +10°C° 0 mm 1 mps 714 mmHg 36%
22:00 +10°C° 0 mm 1 mps 714 mmHg 37%
23:00 +8°C° 0 mm 0 mps 714 mmHg 38%

Day after tomorrow, 12 August, Wednesday

Time Temperature Precipitation Wind Pressure Humidity
00:00 +7°C° 0 mm 0 mps 713 mmHg 39%
01:00 +7°C° 0 mm 0 mps 713 mmHg 41%
02:00 +6°C° 0 mm 0 mps 713 mmHg 43%
03:00 +7°C° 0 mm 1 mps 712 mmHg 44%
04:00 +6°C° 0 mm 1 mps 712 mmHg 45%
05:00 +6°C° 0 mm 1 mps 712 mmHg 46%
06:00 +6°C° 0 mm 2 mps 712 mmHg 44%
07:00 +6°C° 0 mm 2 mps 712 mmHg 41%
08:00 +7°C° 0 mm 2 mps 713 mmHg 38%
09:00 +9°C° 0 mm 2 mps 713 mmHg 34%
10:00 +12°C° 0 mm 2 mps 713 mmHg 30%
11:00 +13°C° 0 mm 2 mps 713 mmHg 26%
12:00 +14°C° 0 mm 2 mps 712 mmHg 24%
13:00 +15°C° 0 mm 2 mps 711 mmHg 23%
14:00 +16°C° 0 mm 2 mps 710 mmHg 22%
15:00 +16°C° 0 mm 2 mps 710 mmHg 22%
16:00 +16°C° 0 mm 2 mps 709 mmHg 22%
17:00 +16°C° 0 mm 2 mps 709 mmHg 22%
18:00 +15°C° 0 mm 2 mps 709 mmHg 25%
19:00 +13°C° 0 mm 1 mps 710 mmHg 29%
20:00 +11°C° 0 mm 1 mps 710 mmHg 32%
21:00 +10°C° 0 mm 1 mps 710 mmHg 34%
22:00 +10°C° 0 mm 1 mps 711 mmHg 35%
23:00 +9°C° 0 mm 1 mps 711 mmHg 37%

13 August, Thursday

Time Temperature Precipitation Wind Pressure Humidity
00:00 +9°C° 0 mm 1 mps 710 mmHg 37%
01:00 +9°C° 0 mm 1 mps 710 mmHg 37%
02:00 +9°C° 0 mm 1 mps 710 mmHg 37%
03:00 +8°C° 0 mm 1 mps 710 mmHg 40%
04:00 +7°C° 0 mm 1 mps 710 mmHg 44%
05:00 +7°C° 0 mm 1 mps 709 mmHg 47%
06:00 +8°C° 0 mm 1 mps 710 mmHg 44%
07:00 +9°C° 0 mm 1 mps 710 mmHg 41%
08:00 +10°C° 0 mm 1 mps 711 mmHg 38%
09:00 +12°C° 0 mm 2 mps 711 mmHg 33%
10:00 +14°C° 0 mm 2 mps 711 mmHg 28%
11:00 +17°C° 0 mm 2 mps 711 mmHg 23%
12:00 +18°C° 0 mm 2 mps 711 mmHg 22%
13:00 +19°C° 0 mm 2 mps 710 mmHg 20%
14:00 +20°C° 0 mm 2 mps 709 mmHg 19%
15:00 +20°C° 0 mm 2 mps 709 mmHg 19%
16:00 +20°C° 0 mm 2 mps 709 mmHg 19%
17:00 +20°C° 0 mm 2 mps 708 mmHg 19%
18:00 +17°C° 0 mm 2 mps 708 mmHg 23%
19:00 +15°C° 0 mm 1 mps 708 mmHg 27%
20:00 +12°C° 0 mm 1 mps 708 mmHg 31%
21:00 +12°C° 0 mm 1 mps 708 mmHg 33%
22:00 +11°C° 0 mm 1 mps 708 mmHg 35%
23:00 +11°C° 0 mm 1 mps 708 mmHg 36%

14 August, Friday

Time Temperature Precipitation Wind Pressure Humidity
00:00 +10°C° 0 mm 1 mps 708 mmHg 38%
01:00 +10°C° 0 mm 1 mps 707 mmHg 40%
02:00 +9°C° 0 mm 2 mps 707 mmHg 41%
03:00 +8°C° 0 mm 2 mps 706 mmHg 44%
04:00 +9°C° 0 mm 1 mps 706 mmHg 47%
05:00 +8°C° 0 mm 1 mps 705 mmHg 50%
06:00 +9°C° 0 mm 1 mps 706 mmHg 46%
07:00 +10°C° 0 mm 1 mps 706 mmHg 41%
08:00 +12°C° 0 mm 1 mps 707 mmHg 37%
09:00 +14°C° 0 mm 2 mps 707 mmHg 32%
10:00 +16°C° 0 mm 2 mps 707 mmHg 28%
11:00 +19°C° 0 mm 3 mps 708 mmHg 23%
12:00 +20°C° 0 mm 3 mps 708 mmHg 22%
13:00 +21°C° 0 mm 4 mps 708 mmHg 22%
14:00 +22°C° 0 mm 5 mps 708 mmHg 21%
15:00 +21°C° 0 mm 6 mps 709 mmHg 20%
16:00 +21°C° 0 mm 7 mps 709 mmHg 20%
17:00 +20°C° 0 mm 8 mps 710 mmHg 19%
18:00 +17°C° 0 mm 7 mps 711 mmHg 25%
19:00 +15°C° 0 mm 5 mps 712 mmHg 30%
20:00 +13°C° 0 mm 4 mps 713 mmHg 35%
21:00 +12°C° 0 mm 4 mps 713 mmHg 37%
22:00 +11°C° 0 mm 3 mps 714 mmHg 38%
23:00 +10°C° 0 mm 2 mps 714 mmHg 40%

15 August, Saturday

Time Temperature Precipitation Wind Pressure Humidity
00:00 +9°C° 0 mm 2 mps 714 mmHg 43%
01:00 +9°C° 0 mm 1 mps 713 mmHg 45%
02:00 +8°C° 0 mm 1 mps 713 mmHg 48%
03:00 +7°C° 0 mm 1 mps 713 mmHg 50%
04:00 +6°C° 0 mm 1 mps 712 mmHg 52%
05:00 +6°C° 0 mm 1 mps 712 mmHg 54%
06:00 +7°C° 0 mm 1 mps 712 mmHg 49%
07:00 +8°C° 0 mm 1 mps 712 mmHg 44%
08:00 +10°C° 0 mm 1 mps 712 mmHg 39%
09:00 +11°C° 0 mm 1 mps 712 mmHg 36%
10:00 +13°C° 0 mm 1 mps 712 mmHg 32%
11:00 +15°C° 0 mm 2 mps 711 mmHg 29%
12:00 +16°C° 0 mm 2 mps 710 mmHg 27%
13:00 +17°C° 0 mm 2 mps 709 mmHg 26%
14:00 +19°C° 0 mm 2 mps 708 mmHg 24%
15:00 +19°C° 0 mm 2 mps 708 mmHg 24%
16:00 +19°C° 0 mm 2 mps 708 mmHg 24%
17:00 +20°C° 0 mm 1 mps 707 mmHg 24%
18:00 +18°C° 0 mm 1 mps 707 mmHg 28%
19:00 +15°C° 0 mm 1 mps 707 mmHg 32%
20:00 +13°C° 0 mm 1 mps 708 mmHg 36%
21:00 +12°C° 0 mm 1 mps 707 mmHg 39%
22:00 +11°C° 0 mm 1 mps 707 mmHg 42%
23:00 +10°C° 0 mm 0 mps 707 mmHg 45%
Show more